www.pogodaiklimat.ru

Погода и климат >> Архив погоды >> Аргентина >> Mendoza


ПОГОДА в Mendoza

  • Прогноз погоды в Mendoza
  • Монитор погоды в Mendoza
  • Климат города

АРХИВ ПОГОДЫ в Mendoza

Время (UTC), дата Ветер
(напр.,м/с)
 
Видим.   Явления Облачность Т
(С)
Тd
(С)
f
(%)
Тe
(С)
Тes
(С)
Комфортность P
(гПа)
Po
(гПа)
Тmin
(С)
Tmax
(С)
R
(мм)
R24
(мм)
S
(см)
21 20.06 СВ 3 15 км 4/0
[Ac As]
+10.9 -5.2 32 +10 +10 1014.9 932.1
00 21.06 С 2 15 км 3/0
[Ac As]
+4.8 -4.3 52 +3 +3 1016.6 932.5 -2.7 +12.7
03 21.06 штиль 0 15 км ясно +2.6 -4.4 60 +2 +2 1015.6 932.6
06 21.06 ЮЗ 2 15 км 4/0
[Ac As]
+2.2 -4.3 62 0 0 1014.7 932.2
09 21.06 Ю 1 15 км 4/0
[Ac As]
+0.2 -4.0 73 -2 -2 1015.0 932.2
12 21.06 ЮЗ 1 7000 м дымка 8/0
[Ac As Cs]
-0.6 -3.9 78 -3 -2 1017.1 933.2 -1.0 +5.2
15 21.06 В 3 15 км 8/0
[Ac As Cs]
+8.6 -3.6 42 +7 +10 1015.2 932.5
18 21.06 СВ 2 15 км 4/0
[Ac As]
+12.6 -3.6 32 +13 +17 1009.8 928.0
21 21.06 СВ 3 15 км 8/0
[Ac As Cs]
+11.9 -2.2 37 +11 +11 1008.8 926.6
00 22.06 З 1 15 км 1/0
[Ac As]
+5.6 -1.1 62 +5 +5 1008.9 925.8 -0.6 +14.0
03 22.06 ЮЗ 1 15 км ясно +3.8 -2.5 63 +3 +3 1005.4 923.7
06 22.06 Ю 1 15 км ясно +3.4 -2.7 64 +2 +2 1003.0 922.2
09 22.06 З 1 15 км ясно 0.0 -3.6 77 -2 -2 1003.9 922.2
12 22.06 ЮЗ 3 8000 м дым 3/1 1500 м
[Sc Ac As]
+3.4 -2.4 66 -0 -0 1004.0 921.8 0.0 +5.6
15 22.06 СВ 3 15 км 4/0
[Ac As]
+7.5 -0.5 57 +5 +8 1005.4 923.6
18 22.06 С 3 15 км 5/0
[Ac As]
+16.0 +0.6 35 +16 +19 1002.5 922.0
21 22.06 Ю 4 15 км 9/0
[Ac As]
+16.4 +0.3 33 +16 +16 1004.1 923.0
00 23.06 штиль 0 15 км 8/0
[Ac As]
+11.5 +1.7 51 +11 +11 1007.5 925.8 +3.4 +17.0
03 23.06 Ю 3 15 км 1/0
[Ac As]
+11.5 +1.4 50 +10 +10 1008.3 927.2
06 23.06 С 1 9000 м дым ясно +6.6 +1.8 71 +6 +6 1007.6 927.0
09 23.06 В 3 8000 м дымка ясно +4.5 +0.8 77 +1 +1 1008.1 927.3
12 23.06 штиль 0 8000 м дымка 5/0
[Ac As Cs]
+4.1 +1.4 83 +3 +3 1012.0 930.2 +2.4 +12.4
15 23.06 Ю 3 15 км дым 5/0
[Cs]
+14.5 +3.7 48 +14 +18 1012.1 931.7
18 23.06 ЮВ 4 15 км 6/0
[Cs]
+16.6 +5.3 47 +16 +19 1011.0 930.2
21 23.06 В 2 15 км 6/1 1200 м
[Sc Cs]
+15.2 +5.5 52 +15 +16 1012.1 930.8
00 24.06 ЮВ 4 15 км ясно +11.2 +5.8 69 +9 +9 1015.8 933.6 +3.7 +17.3
03 24.06 Ю 3 15 км 5/5 1500 м
[Sc]
+10.6 +6.5 76 +9 +9 1014.6 933.8
06 24.06 Ю 1 15 км 9/9 1500 м
[Sc]
+10.4 +6.7 78 +10 +10 1014.2 933.7
09 24.06 штиль 0 15 км 9/9 1500 м
[Sc]
+9.8 +6.0 77 +9 +9 1013.2 932.6
12 24.06 штиль 0 4000 м дымка 9/6 1350 м
[Sc Ac As]
+9.4 +6.5 82 +9 +9 1013.7 932.4 +9.2 +11.4
15 24.06 СВ 2 15 км 9/6 1350 м
[Sc Ac As]
+11.2 +5.8 69 +10 +11 1013.9 932.8
18 24.06 В 2 15 км 9/6 1350 м
[Sc Ac As]
+13.0 +5.1 59 +12 +14 1010.4 929.8
21 24.06 штиль 0 15 км 9/6 1350 м
[Sc Ac As]
+12.6 +5.1 60 +12 +12 1009.1 928.4
00 25.06 штиль 0 15 км 9/6 1350 м
[Sc Ac As]
+11.6 +5.8 68 +11 +11 1008.9 928.1 +9.2 +13.6
03 25.06 штиль 0 15 км 9/5 1350 м
[Sc Ac As]
+10.3 +5.9 74 +10 +10 1009.0 928.2
06 25.06 штиль 0 15 км 9/9 1200 м
[Sc]
+10.0 +5.8 75 +9 +9 1008.1 927.6
09 25.06 ЮЗ 1 15 км 8/5 1350 м
[Sc Ac As]
+10.0 +5.3 73 +10 +10 1007.3 926.8
12 25.06 штиль 0 4000 м дымка 5/0
[Ac As]
+6.6 +4.8 88 +6 +6 1009.3 928.0 +6.2 +11.6
15 25.06 Ю 3 15 км 3/0
[Ac As]
+14.0 +5.9 58 +13 +17 1008.7 928.2
18 25.06 ЮВ 4 15 км 3/0
[Ac As]
+17.0 +5.4 46 +17 +20 1006.1 926.2
21 25.06 ЮВ 2 15 км 5/3 1350 м
[Sc Ac As]
+15.6 +7.4 58 +16 +16 1006.8 926.6
00 26.06 ЮВ 5 15 км 10/10 750 м
[Sc]
+11.3 +8.8 85 +9 +9 1011.5 930.0 +6.6 +18.2
03 26.06 ЮВ 2 15 км 10/10 750 м
[Sc]
+11.0 +9.1 88 +10 +10 1011.1 930.6
06 26.06 штиль 0 15 км 10/10 750 м
[Sc]
+10.5 +8.5 87 +10 +10 1010.5 930.4
09 26.06 штиль 0 15 км 10/10 1050 м
[Sc]
+10.8 +8.2 84 +10 +10 1009.9 929.7
12 26.06 В 1 15 км 9/6 1050 м
[Sc Ac As]
+9.9 +7.9 87 +9 +9 1011.7 930.6 +9.7 +11.9
15 26.06 Ю 2 15 км 10/10 1050 м
[Sc]
+12.8 +7.0 68 +12 +12 1012.0 931.3
18 26.06 В 4 15 км 10/10 1200 м
[Sc]
+12.7 +6.2 65 +11 +11 1011.2 930.5
21 26.06 ЮВ 2 15 км 10/10 1350 м
[Sc]
+12.3 +6.6 68 +12 +12 1012.3 931.4
00 27.06 Ю 7 15 км 10/10 1050 м
[Sc]
+11.8 +4.6 61 +9 +9 1015.6 934.2 +9.9 +14.1
03 27.06 Ю 5 15 км {морось} 10/8 1000 м
[Sc As op]
+11.8 +6.0 68 +9 +9 1017.0 936.0
06 27.06 Ю 3 15 км {морось} 9/6 1050 м
[Sc Ac As]
+12.2 +4.1 58 +11 +11 1017.4 936.5
09 27.06 Ю 1 15 км 10/10 1050 м
[Sc]
+10.8 +5.8 71 +11 +11 1017.6 936.2
12 27.06 штиль 0 15 км в посл. час морось 10/10 900 м
[Sc]
+9.0 +7.8 92 +8 +8 1021.7 939.8 +9.0 +12.2 0.0
15 27.06 Ю 2 10 км в посл. час морось 10/9 900 м
[Sc As op]
+9.8 +7.8 87 +8 +8 1023.3 941.4
18 27.06 штиль 0 6000 м слабая морось 10/10 900 м
[Sc]
+10.2 +8.2 87 +9 +9 1022.7 940.9 0.6

 

Местоположение метеостанции Mendoza (Аргентина): широта -32.83 долгота -68.78 высота над уровнем моря 704 м.

В архиве по умолчанию представлена погода в Mendoza за последнюю неделю. Архивные данные за месяц целиком и за предыдущие месяцы, начиная с января 2011 года, Вы можете получить, выбрав интересующий диапазон дат из раскрывающегося списка и нажав кнопку "Ввод!".

Внимание! Время в таблицах - всемирное. Для получения местного времени необходимо прибавить поправку, которая в Mendoza равна -3 ч.

Смотрите также архив погоды в соседних городах и на ближайших метеорологических станциях:

Погода в San Martin (Аргентина) (44 км)
Погода в San Juan (Аргентина) (163 км)
Погода в Santiago (Чили) (189 км)
Погода в Pudahuel (Чили) (196 км)
Погода в San Rafael (Аргентина) (198 км)
Погода в San Luis (Аргентина) (232 км)
Погода в Punta Angeles (Чили) (268 км)
Погода в San Antonio (Чили) (275 км)
Погода в Santo Domingo (Чили) (279 км)
Погода в Malargue (Аргентина) (306 км)

Пояснения к столбцам:

Ветер - указаны скорость ветра в м/с - средняя за 10 мин, порывы в срок и между сроками (в фигурных скобках) и направление, откуда дует ветер: С - северный, СВ - северо-восточный, В - восточный, ЮВ - юго-восточный, Ю - южный, ЮЗ - юго-западный, З - западный, СЗ - северо-западный.
Видимость - горизонтальная дальность видимости в метрах или километрах. При видимости от 1 до 10 км при отсутствии осадков обычно наблюдается дымка, при ухудшении видимости до 1 км и менее - туман. В сухую погоду видимость может ухудшаться дымом, пылью или мглою.
Явления - указаны атмосферные явления, наблюдавшиеся в срок или в последний час перед сроком; фигурными скобками обозначены явления, наблюдавшиеся между сроками (за 1-3 часа до срока); квадратными скобками обозначены град или гололедные отложения с указанием их диаметра в мм.
Облачность - указаны через наклонную черту общая и нижняя облачность в баллах и высота нижней границы облаков в метрах; квадратными скобками обозначены формы облаков: Ci - перистые, Cs - перисто-слоистые, Cc - перисто-кучевые, Ac - высококучевые, As - высокослоистые, Sc - слоисто-кучевые, Ns - слоисто-дождевые, Cu - кучевые, Cb - кучево-дождевые. Подробнее классификацию облаков см. в Атласе облаков (PDF).
T - Температура воздуха - температура, измеренная на высоте 2 м над землей.
Td - Температура точки росы - температура, при понижении до которой содержащийся в воздухе водяной пар достигнет насыщения.
f - Относительная влажность воздуха - влажноcть воздуха, измеренная на высоте 2 м над землей.
Te - Эффективная температура - температура, которую ощущает одетый по сезону человек в тени. Характеристика душности погоды. При расчете учитывается влияние влажности воздуха и скорости ветра на теплоощущения человека.
Tes - Эффективная температура на солнце - температура, которую ощущает человек, с поправкой на солнечный нагрев. Характеристика знойности погоды. Зависит от высоты солнца над горизонтом, облачности и скорости ветра. Ночью, в пасмурную погоду, а также при ветре 12 м/с и более поправка равна нулю.
P - Атмосферное давление - приведенное к уровню моря атмосферное давление.
Po - Атмосферное давление - измеренное на уровне метеостанции атмосферное давление.
Tmin - Минимальная температура - минимум температуры воздуха на высоте 2 м над землей.
Tmax - Максимальная температура - максимум температуры воздуха на высоте 2 м над землей.
R - Количество осадков - Количество выпавших осадков за период времени, мм. При наведении курсора мыши на число - период времени, за который выпало указанное количество осадков.
R24 - Количество осадков - Количество выпавших осадков за 24 часа, мм.
S - Снежный покров - Высота снежного покрова, см. При наведении курсора мыши на число - состояние снежного покрова и степень покрытия местности в баллах.